Flag for Germany Weather past 2 weeks in Worms, Rhineland-Palatinate, Germany

Now
79 °F

Passing clouds.


Feels Like: 80 °F
Forecast: 58 / 71 °F
Wind: 7 mph from South

Location: Baden Wurttemberg - Neuostheim

Current Time: Aug 31, 2015 at 11:01:41 AM

Latest Report: Aug 31, 2015 at 10:20 AM


Visibility: N/A

Pressure: 29.95 "Hg

Humidity: 48%

Dew point: 57 °F

Location of WormsLocation

Historic Weather in Worms — Graph

°F

Worms temperature yesterday

Maximum temperature yesterday: 93 °F (at 4:50 PM)
Minimum temperature yesterday: 68 °F (at 7:20 AM)
Average temperature yesterday: 85 °F

Past Weeks' High & Low Weather Summary

 TemperatureHumidityPressure
High93 °F (Aug 30, 4:50 PM)100% (Aug 17, 9:20 PM)30.27 "Hg (Aug 17, 9:20 PM)
Low54 °F (Aug 19, 5:20 AM)23% (Aug 22, 2:50 PM)29.68 "Hg (Aug 23, 4:50 PM)
Average70 °F63%30.01 "Hg
* Reported Aug 16 9:20 AM — Aug 31 9:50 AM, Worms, Weather by CustomWeather, © 2015

Note: Actual official high and low records may vary slightly from our data, if they occured in-between our weather recording intervals... More about our weather records

Advertising

Worms weather history for previous 24 hours

 ConditionsComfort  
Time TempWeatherWind HumidityBarometerVisibility
9:50 AM
Mon, Aug 31
77 °FPassing clouds.7 mph57%29.95 "HgN/A
9:20 AM75 °FSunny.6 mph61%29.98 "Hg10 mi
8:50 AM73 °FPassing clouds.5 mph69%29.95 "HgN/A
8:20 AM72 °FPassing clouds.6 mph73%29.95 "HgN/A
7:50 AM72 °FPassing clouds.5 mph78%29.98 "HgN/A
7:20 AM70 °FClear.3 mph78%29.98 "Hg10 mi
6:50 AM70 °FClear.5 mph78%29.98 "Hg10 mi
6:20 AM70 °FClear.3 mph83%29.98 "Hg10 mi
7:20 PM
Sun, Aug 30
91 °FSunny.2 mph41%29.98 "Hg10 mi
6:50 PM93 °FSunny.2 mph34%29.98 "Hg10 mi
6:20 PM93 °FExtremely hot.2 mph34%29.98 "HgN/A
5:50 PM93 °FSunny.2 mph34%29.98 "Hg10 mi
5:20 PM93 °FSunny.3 mph32%30.01 "Hg10 mi
4:50 PM93 °FSunny.3 mph32%30.01 "Hg10 mi
4:20 PM91 °FPassing clouds.6 mph34%30.01 "HgN/A
3:50 PM91 °FPassing clouds.6 mph34%30.01 "HgN/A
3:20 PM91 °FPassing clouds.8 mph34%30.04 "HgN/A
2:50 PM90 °FPassing clouds.7 mph38%30.04 "HgN/A
2:20 PM90 °FPassing clouds.8 mph41%30.04 "HgN/A
1:50 PM90 °FPassing clouds.6 mph43%30.04 "HgN/A
1:20 PM88 °FPassing clouds.7 mph46%30.07 "HgN/A
12:50 PM86 °FPassing clouds.6 mph52%30.07 "HgN/A
12:20 PM86 °FSunny.6 mph52%30.07 "Hg10 mi
11:50 AM82 °FPassing clouds.7 mph58%30.09 "HgN/A
11:20 AM82 °FPassing clouds.7 mph58%30.09 "HgN/A
Weather by CustomWeather, © 2015

See weather overviewHow to use our weather pages